Location: Berlin
(38.3226°N, 75.2177°W)
Time: 12:07:50
(UTC+00:00)

Cosmos 2369 - Pass Details

Date: 26 October 2020
Orbit: 841 x 854 km, 71.0° (Epoch: 29 November)

Event Time Altitude Azimuth Distance (km) Brightness Sun altitude
Rises 00:23:03 0° 206° (SSW) 3,408 7.1 -26.9°
Reaches altitude 10° 00:25:30 10° 208° (SSW) 2,475 6.4 -27.4°
Maximum altitude 00:31:11 73° 293° (WNW) 890 3.8 -28.5°
Enters shadow 00:32:29 53° 359° (N) 1,035 4.1 -28.8°
